< < Back
Terminal Aerodrome Forecast


Current Version              Previous Versions:   1  2  3  4  5  6  7  8  9  

Terminal Aerodrome Forecast

631
FTUS42 KGSP 200500
TAFAND
TAF
KAND 200520Z 2006/2106 27003KT P6SM FEW060
     FM201000 00000KT P6SM SCT060
     FM202100 26006KT P6SM SCT060
     FM202300 32004KT P6SM SCT060=



Latest METAR

188
SAUS70 KWBC 200700 RRC
MTRAND
METAR KAND 200656Z AUTO 34003KT 10SM CLR 22/21 A2993 RMK AO2 SLP124
T02220206


USA.gov is the U.S. government's official web portal to all federal, state and local government web resources and services.